Philip, SD

10:43 PM MDT on May 25, 2017 (GMT -0600)
Philip

Weather History for KPHP - July, 2014

Change the Weather History Date:

Wednesday, July 16, 2014

  Actual Average Record
Temperature  
Mean Temperature 65 °F 75 °F  
Max Temperature 81 °F 90 °F 111 °F (2006)
Min Temperature 49 °F 60 °F 44 °F (1976)
Degree Days  
Heating Degree Days 0 0  
Month to date heating degree days 16 3  
Since 1 June heating degree days 94 66  
Since 1 July heating degree days 16 3  
Cooling Degree Days 0 10  
Month to date cooling degree days 92 141  
Year to date cooling degree days 188 291  
Since 1 June cooling degree days 148 264  
Growing Degree Days 15 (Base 50)    
Moisture  
Dew Point 50 °F    
Average Humidity 61    
Maximum Humidity 83    
Minimum Humidity 39    
Precipitation  
Precipitation 0.00 in 0.06 in 1.06 in (1979)
Month to date precipitation 0.01 1.23  
Year to date precipitation 8.83 11.08  
Sea Level Pressure  
Sea Level Pressure 30.01 in    
Wind  
Wind Speed 9 mph (SE)    
Max Wind Speed 20 mph    
Max Gust Speed 29 mph    
Visibility 10 miles    
Events      
T = Trace of Precipitation, MM = Missing Value Source: NWS Daily Summary

Daily Weather History Graph

Daily Weather History Graph

Search for Another Location

Airport or City:

Trip Planner

Search our weather history database for the weather conditions in past years. The results will help you decide how hot, cold, wet, or windy it might be!

Date:

Astronomy

Jul. 16, 2014 Rise Set
Actual Time 5:18 AM MDT 8:26 PM MDT
Civil Twilight 4:43 AM MDT 9:00 PM MDT
Nautical Twilight 3:58 AM MDT 9:45 PM MDT
Astronomical Twilight 3:04 AM MDT 10:39 PM MDT
Moon 10:57 PM MDT (7/16) 10:36 AM MDT (7/16)
Length of Visible Light 16h 17m
Length of Day
15h 07m
Waning Gibbous, 75% of the Moon is Illuminated
Jul 16
Waning Gibbous
Jul 18
Last Quarter
Jul 26
New
Aug 3
First Quarter
Aug 10
Full

Hourly Weather History & Observations

Time (MDT) Temp. Dew Point Humidity Pressure Visibility Wind Dir Wind Speed Gust Speed Precip Events Conditions
12:55 AM 51.1 °F 45.0 °F 80% 30.07 in 10.0 mi East 4.6 mph - N/A   Clear
1:55 AM 52.0 °F 46.0 °F 80% 30.06 in 10.0 mi East 8.1 mph - N/A   Mostly Cloudy
2:55 AM 52.0 °F 46.0 °F 80% 30.05 in 10.0 mi East 6.9 mph - N/A   Partly Cloudy
3:55 AM 54.0 °F 46.0 °F 75% 30.04 in 10.0 mi East 8.1 mph - N/A   Partly Cloudy
4:55 AM 54.0 °F 46.0 °F 75% 30.04 in 10.0 mi East 4.6 mph - N/A   Scattered Clouds
5:55 AM 57.0 °F 46.9 °F 69% 30.04 in 10.0 mi East 6.9 mph - N/A   Mostly Cloudy
6:55 AM 59.0 °F 46.9 °F 64% 30.04 in 10.0 mi East 8.1 mph - N/A   Clear
7:55 AM 63.0 °F 48.9 °F 60% 30.05 in 10.0 mi ESE 8.1 mph - N/A   Mostly Cloudy
8:55 AM 68.0 °F 50.0 °F 52% 30.04 in 10.0 mi SE 13.8 mph - N/A   Clear
9:55 AM 70.0 °F 50.0 °F 49% 30.04 in 10.0 mi SE 12.7 mph 24.2 mph N/A   Mostly Cloudy
10:55 AM 73.0 °F 51.1 °F 46% 30.04 in 10.0 mi SSE 15.0 mph 21.9 mph N/A   Mostly Cloudy
11:55 AM 73.0 °F 50.0 °F 44% 30.02 in 10.0 mi SE 11.5 mph - N/A   Partly Cloudy
12:55 PM 75.9 °F 52.0 °F 43% 30.00 in 10.0 mi SE 15.0 mph 21.9 mph N/A   Clear
1:55 PM 79.0 °F 53.1 °F 40% 29.98 in 10.0 mi SSE 12.7 mph 20.7 mph N/A   Scattered Clouds
2:55 PM 78.1 °F 53.1 °F 42% 29.98 in 10.0 mi South 11.5 mph 21.9 mph N/A   Partly Cloudy
4:55 PM 77.0 °F 53.1 °F 43% 29.96 in 10.0 mi SSE 13.8 mph - N/A   Mostly Cloudy
5:55 PM 78.1 °F 52.0 °F 40% 29.95 in 10.0 mi South 13.8 mph - N/A   Partly Cloudy
6:55 PM 75.0 °F 52.0 °F 44% 29.95 in 10.0 mi South 13.8 mph - N/A   Clear
7:55 PM 71.1 °F 53.1 °F 53% 29.96 in 10.0 mi South 6.9 mph - N/A   Clear
8:55 PM 64.9 °F 53.1 °F 65% 29.96 in 10.0 mi South 6.9 mph - N/A   Clear
9:55 PM 62.1 °F 52.0 °F 70% 29.97 in 10.0 mi SE 3.5 mph - N/A   Clear
10:55 PM 62.1 °F 52.0 °F 70% 29.97 in 10.0 mi Calm Calm - N/A   Clear
11:55 PM 62.1 °F 52.0 °F 70% 29.97 in 10.0 mi SSW 3.5 mph - N/A   Clear